When you browse on this site, cookies collect data to enhance your experience and personalize the content and advertising you see.
Visit our Privacy Policy to learn more. By continuing to use the site, you agree to this use of cookies and data.
  • In Switzerland
  • List of Countries
  • For 7 days
  • Water Temperature
  • Weather Map
  • Weather Widgets
  • user-avatar
    Login

    Hourly Weather Adelaide

    Today, 19 October, Saturday

    Time Temperature Precipitation Wind Pressure Humidity
    00:00 +10°C° 0 mm 5 mps 759 mmHg 77%
    01:00 +10°C° 0.1 mm 6 mps 759 mmHg 76%
    02:00 +10°C° 0.1 mm 6 mps 760 mmHg 74%
    03:00 +11°C° 0 mm 7 mps 760 mmHg 73%
    04:00 +10°C° 0.1 mm 6 mps 760 mmHg 72%
    05:00 +10°C° 0.1 mm 6 mps 761 mmHg 70%
    06:00 +10°C° 0.1 mm 5 mps 761 mmHg 69%
    07:00 +11°C° 0 mm 6 mps 762 mmHg 66%
    08:00 +11°C° 0 mm 6 mps 762 mmHg 62%
    09:00 +12°C° 0 mm 7 mps 763 mmHg 58%
    10:00 +14°C° 0 mm 7 mps 763 mmHg 56%
    11:00 +14°C° 0 mm 6 mps 763 mmHg 54%
    12:00 +14°C° 0 mm 6 mps 763 mmHg 52%
    13:00 +14°C° 0 mm 6 mps 763 mmHg 54%
    14:00 +14°C° 0 mm 6 mps 763 mmHg 55%
    15:00 +14°C° 0 mm 6 mps 763 mmHg 57%
    16:00 +13°C° 0 mm 6 mps 763 mmHg 63%
    17:00 +12°C° 0 mm 5 mps 764 mmHg 68%
    18:00 +12°C° 0 mm 5 mps 764 mmHg 74%
    19:00 +11°C° 0 mm 4 mps 765 mmHg 76%
    20:00 +10°C° 0 mm 4 mps 765 mmHg 77%
    21:00 +10°C° 0 mm 4 mps 765 mmHg 78%
    22:00 +9°C° 0 mm 3 mps 766 mmHg 80%
    23:00 +9°C° 0 mm 3 mps 766 mmHg 82%

    Tomorrow, 20 October, Sunday

    Time Temperature Precipitation Wind Pressure Humidity
    00:00 +9°C° 0 mm 3 mps 766 mmHg 83%
    01:00 +9°C° 0 mm 3 mps 766 mmHg 84%
    02:00 +9°C° 0 mm 2 mps 766 mmHg 84%
    03:00 +9°C° 0 mm 2 mps 766 mmHg 85%
    04:00 +9°C° 0 mm 2 mps 766 mmHg 84%
    05:00 +10°C° 0 mm 1 mps 767 mmHg 82%
    06:00 +11°C° 0 mm 1 mps 767 mmHg 81%
    07:00 +12°C° 0 mm 1 mps 767 mmHg 74%
    08:00 +14°C° 0 mm 2 mps 767 mmHg 66%
    09:00 +15°C° 0 mm 2 mps 768 mmHg 59%
    10:00 +16°C° 0 mm 3 mps 767 mmHg 57%
    11:00 +17°C° 0 mm 3 mps 767 mmHg 55%
    12:00 +18°C° 0 mm 3 mps 767 mmHg 52%
    13:00 +18°C° 0 mm 3 mps 767 mmHg 54%
    14:00 +17°C° 0 mm 4 mps 766 mmHg 56%
    15:00 +17°C° 0 mm 4 mps 766 mmHg 57%
    16:00 +15°C° 0 mm 4 mps 766 mmHg 64%
    17:00 +14°C° 0 mm 3 mps 767 mmHg 71%
    18:00 +13°C° 0 mm 3 mps 767 mmHg 78%
    19:00 +11°C° 0 mm 3 mps 767 mmHg 81%
    20:00 +10°C° 0 mm 3 mps 768 mmHg 84%
    21:00 +9°C° 0 mm 3 mps 768 mmHg 87%
    22:00 +9°C° 0 mm 2 mps 768 mmHg 87%
    23:00 +9°C° 0 mm 2 mps 767 mmHg 87%

    Day after tomorrow, 21 October, Monday

    Time Temperature Precipitation Wind Pressure Humidity
    00:00 +8°C° 0 mm 2 mps 767 mmHg 87%
    01:00 +8°C° 0 mm 2 mps 767 mmHg 87%
    02:00 +8°C° 0 mm 2 mps 767 mmHg 87%
    03:00 +8°C° 0 mm 2 mps 766 mmHg 86%
    04:00 +8°C° 0 mm 2 mps 767 mmHg 83%
    05:00 +9°C° 0 mm 2 mps 767 mmHg 80%
    06:00 +9°C° 0 mm 2 mps 768 mmHg 77%
    07:00 +13°C° 0 mm 1 mps 767 mmHg 65%
    08:00 +16°C° 0 mm 1 mps 767 mmHg 54%
    09:00 +20°C° 0 mm 1 mps 767 mmHg 43%
    10:00 +21°C° 0 mm 1 mps 767 mmHg 40%
    11:00 +21°C° 0 mm 2 mps 766 mmHg 38%
    12:00 +23°C° 0 mm 2 mps 766 mmHg 36%
    13:00 +23°C° 0 mm 2 mps 766 mmHg 36%
    14:00 +22°C° 0 mm 3 mps 765 mmHg 37%
    15:00 +21°C° 0 mm 3 mps 764 mmHg 38%
    16:00 +20°C° 0 mm 3 mps 765 mmHg 44%
    17:00 +19°C° 0 mm 2 mps 765 mmHg 51%
    18:00 +17°C° 0 mm 2 mps 765 mmHg 57%
    19:00 +16°C° 0 mm 2 mps 765 mmHg 59%
    20:00 +16°C° 0 mm 2 mps 765 mmHg 60%
    21:00 +15°C° 0 mm 2 mps 765 mmHg 62%
    22:00 +15°C° 0 mm 2 mps 765 mmHg 63%
    23:00 +15°C° 0 mm 2 mps 764 mmHg 65%

    22 October, Tuesday

    Time Temperature Precipitation Wind Pressure Humidity
    00:00 +15°C° 0 mm 2 mps 764 mmHg 66%
    01:00 +15°C° 0 mm 2 mps 764 mmHg 66%
    02:00 +14°C° 0 mm 2 mps 764 mmHg 66%
    03:00 +14°C° 0 mm 2 mps 763 mmHg 66%
    04:00 +15°C° 0 mm 2 mps 764 mmHg 64%
    05:00 +15°C° 0 mm 2 mps 764 mmHg 62%
    06:00 +16°C° 0 mm 2 mps 764 mmHg 60%
    07:00 +18°C° 0 mm 2 mps 764 mmHg 52%
    08:00 +22°C° 0 mm 1 mps 764 mmHg 44%
    09:00 +25°C° 0 mm 1 mps 764 mmHg 36%
    10:00 +26°C° 0 mm 1 mps 764 mmHg 33%
    11:00 +26°C° 0 mm 1 mps 763 mmHg 30%
    12:00 +27°C° 0 mm 2 mps 763 mmHg 27%
    13:00 +27°C° 0 mm 2 mps 762 mmHg 28%
    14:00 +27°C° 0 mm 2 mps 762 mmHg 28%
    15:00 +27°C° 0 mm 3 mps 761 mmHg 28%
    16:00 +25°C° 0 mm 3 mps 761 mmHg 33%
    17:00 +24°C° 0 mm 2 mps 761 mmHg 39%
    18:00 +21°C° 0 mm 2 mps 761 mmHg 45%
    19:00 +20°C° 0 mm 3 mps 762 mmHg 43%
    20:00 +20°C° 0 mm 3 mps 762 mmHg 41%
    21:00 +19°C° 0 mm 3 mps 762 mmHg 39%
    22:00 +19°C° 0 mm 3 mps 762 mmHg 39%
    23:00 +19°C° 0 mm 3 mps 761 mmHg 39%

    23 October, Wednesday

    Time Temperature Precipitation Wind Pressure Humidity
    00:00 +18°C° 0 mm 3 mps 761 mmHg 40%
    01:00 +18°C° 0 mm 2 mps 761 mmHg 42%
    02:00 +18°C° 0 mm 2 mps 760 mmHg 45%
    03:00 +18°C° 0 mm 2 mps 760 mmHg 48%
    04:00 +18°C° 0 mm 2 mps 760 mmHg 47%
    05:00 +18°C° 0 mm 2 mps 761 mmHg 47%
    06:00 +19°C° 0 mm 2 mps 761 mmHg 47%
    07:00 +23°C° 0 mm 2 mps 761 mmHg 41%
    08:00 +25°C° 0 mm 3 mps 761 mmHg 35%
    09:00 +28°C° 0 mm 3 mps 760 mmHg 28%
    10:00 +29°C° 0 mm 3 mps 760 mmHg 27%
    11:00 +29°C° 0 mm 3 mps 759 mmHg 26%
    12:00 +30°C° 0 mm 2 mps 759 mmHg 25%
    13:00 +30°C° 0 mm 2 mps 758 mmHg 25%
    14:00 +30°C° 0 mm 2 mps 757 mmHg 25%
    15:00 +30°C° 0 mm 2 mps 757 mmHg 25%
    16:00 +28°C° 0 mm 2 mps 757 mmHg 29%
    17:00 +26°C° 0 mm 2 mps 757 mmHg 32%
    18:00 +24°C° 0 mm 2 mps 757 mmHg 36%
    19:00 +24°C° 0 mm 2 mps 757 mmHg 36%
    20:00 +23°C° 0 mm 2 mps 757 mmHg 36%
    21:00 +22°C° 0 mm 3 mps 757 mmHg 36%
    22:00 +23°C° 0 mm 2 mps 756 mmHg 35%
    23:00 +21°C° 0 mm 2 mps 756 mmHg 35%

    24 October, Thursday

    Time Temperature Precipitation Wind Pressure Humidity
    00:00 +21°C° 0 mm 2 mps 755 mmHg 35%
    01:00 +21°C° 0 mm 3 mps 755 mmHg 33%
    02:00 +22°C° 0 mm 3 mps 754 mmHg 31%
    03:00 +22°C° 0 mm 3 mps 754 mmHg 30%
    04:00 +22°C° 0 mm 3 mps 754 mmHg 30%
    05:00 +22°C° 0 mm 3 mps 754 mmHg 31%
    06:00 +22°C° 0 mm 4 mps 755 mmHg 32%
    07:00 +24°C° 0 mm 3 mps 755 mmHg 31%
    08:00 +26°C° 0 mm 3 mps 755 mmHg 31%
    09:00 +27°C° 0 mm 3 mps 755 mmHg 31%
    10:00 +28°C° 0 mm 3 mps 754 mmHg 30%
    11:00 +29°C° 0 mm 3 mps 753 mmHg 28%
    12:00 +30°C° 0 mm 3 mps 753 mmHg 27%
    13:00 +31°C° 0 mm 3 mps 752 mmHg 26%
    14:00 +31°C° 0 mm 3 mps 751 mmHg 25%
    15:00 +32°C° 0 mm 2 mps 751 mmHg 24%
    16:00 +30°C° 0 mm 2 mps 750 mmHg 28%
    17:00 +28°C° 0 mm 2 mps 750 mmHg 31%
    18:00 +26°C° 0 mm 1 mps 750 mmHg 34%
    19:00 +25°C° 0 mm 1 mps 750 mmHg 36%
    20:00 +24°C° 0 mm 2 mps 750 mmHg 38%
    21:00 +23°C° 0 mm 2 mps 750 mmHg 40%
    22:00 +24°C° 0 mm 3 mps 749 mmHg 39%
    23:00 +24°C° 0 mm 3 mps 748 mmHg 38%
    Show more